"TOA5","AWS1","CR1000","7964","CR1000.Std.14","CPU:AWS1_114.CR1","64363","TBL110"
"TIMESTAMP","RECORD","Wind_spd_WVc(1)","Wind_spd_WVc(2)","Air_Temp_Avg","Humidity_Avg","SW_upper_Wm2_Avg","Rain_Tot","Press_Avg","Issui_Tot","Depth_cm","SR50A_Raw","Quality","Ground_Temp_Avg(1)","Ground_Temp_Avg(2)","SW_lower_Wm2_Avg","Albedo_Avg","SWC_per(1)","SWC_per(2)","Period(1)","Period(2)"
"TS","RN","","","","","","","","","","","","","","","","","","",""
"","","WVc","WVc","Avg","Avg","Avg","Tot","Avg","Tot","Smp","Smp","Smp","Avg","Avg","Avg","Avg","Smp","Smp","Smp","Smp"
"2018-08-03 00:00:00",352141,0.163,104.5,17.95,99.6,0,0,864.6263,0,4.256,3.038,200,22.77,22.07,0.3335935,0,33.55,42.55,28.88,31.39
"2018-08-03 00:10:00",352142,0.286,52.97,19.16,79.86,0,0,864.6263,0,3.424,3.044,190,22.7,22.08,2.236593,0,33.59,42.6,28.89,31.4
"2018-08-03 00:20:00",352143,0.006,157.1,18.08,91.3,0,0,864.6263,0,3.776,3.044,189,22.68,22.1,0.3032669,0,33.59,42.6,28.89,31.4
"2018-08-03 00:30:00",352144,0.089,153.9,17.87,90.7,0,0,864.5842,0,3.664,3.046,190,22.68,22.11,0.6141155,0,33.59,42.6,28.89,31.4
"2018-08-03 00:40:00",352145,0,0,17.78,88.5,0,0,864.3905,0,3.776,3.044,200,22.6,22.12,0.7202589,0,33.59,42.6,28.89,31.4
"2018-08-03 00:50:00",352146,0.052,70.47,17.84,88.2,0,0,864.3989,0,4.002,3.04,200,22.59,22.14,0.8188207,0,33.64,42.55,28.9,31.39
"2018-08-03 01:00:00",352147,0.317,10.13,19.38,79.44,0,0,864.4473,0,3.366,3.038,202,22.49,22.15,2.786265,0,33.59,42.6,28.89,31.4
"2018-08-03 01:10:00",352148,0.579,12.65,19.96,80.6,0,0,864.5568,0,3.701,3.035,196,22.5,22.13,1.872673,0,33.64,42.6,28.9,31.4
"2018-08-03 01:20:00",352149,0.494,20.85,19.7,80.5,0,0,864.4031,0,3.827,3.034,195,22.46,22.12,0.6975139,0,33.64,42.6,28.9,31.4
"2018-08-03 01:30:00",352150,0.612,28.94,19.88,82.2,0,0,864.3968,0,3.791,3.033,201,22.41,22.12,0.693723,0,33.64,42.6,28.9,31.4
"2018-08-03 01:40:00",352151,0.739,42.32,19.98,78.55,0,0,864.3884,0,3.611,3.035,198,22.42,22.13,0.5762028,0,33.64,42.6,28.9,31.4
"2018-08-03 01:50:00",352152,0.79,40.48,19.88,83.9,0,0,864.3737,0,3.841,3.033,200,22.35,22.11,0.2388171,0,33.64,42.6,28.9,31.4
"2018-08-03 02:00:00",352153,0.526,41.59,20.06,86,0,0,864.3737,0,4.01,3.03,185,22.33,22.08,0.5117564,0,33.64,42.6,28.9,31.4
"2018-08-03 02:10:00",352154,0.523,44.22,20.24,78.38,0,0,864.3737,0,3.802,3.032,199,22.33,22.06,0.5155509,0,33.59,42.6,28.89,31.4
"2018-08-03 02:20:00",352155,0.408,30.68,20.37,71.97,0,0,864.3737,0,3.616,3.032,199,22.25,22.06,0.4321548,0,33.64,42.6,28.9,31.4
"2018-08-03 02:30:00",352156,0.265,4.357,20.71,67.9,0,0,864.3737,0,3.486,3.031,194,22.25,22.01,0.6596054,0,33.64,42.6,28.9,31.4
"2018-08-03 02:40:00",352157,0.048,111.2,19.48,77.02,0,0,864.3737,0,3.848,3.039,199,22.23,21.99,0.05686254,0,33.64,42.6,28.9,31.4
"2018-08-03 02:50:00",352158,0.035,112.5,18.56,82.3,0,0,864.3926,0,3.814,3.04,200,22.14,22,0,0,33.64,42.6,28.9,31.4
"2018-08-03 03:00:00",352159,0.048,72.62,18.73,80.2,0,0,864.3779,0,3.777,3.039,200,22.16,22.06,0.007581673,0,33.69,42.6,28.92,31.4
"2018-08-03 03:10:00",352160,0.21,76.29,19.74,70.85,0,0,864.3737,0,3.537,3.035,195,22.07,22.07,1.307839,0,33.64,42.6,28.9,31.4
"2018-08-03 03:20:00",352161,0.094,146.4,20.14,67.76,0,0,864.4094,0,3.48,3.036,199,22.07,22.07,1.008362,0,33.69,42.6,28.92,31.4
"2018-08-03 03:30:00",352162,0.302,47.95,20.03,67.46,0,0,864.5421,0,3.71,3.034,193,22.07,22.06,0.670978,0,33.69,42.6,28.92,31.4
"2018-08-03 03:40:00",352163,0.623,43.93,19.84,68.45,0,0,864.42,0,3.494,3.037,198,22.07,22.01,0.1743785,0,33.69,42.6,28.92,31.4
"2018-08-03 03:50:00",352164,0.248,83.8,19.94,67.4,0,0,864.3757,0,3.503,3.036,197,22.02,21.93,0.2236593,0,33.69,42.6,28.92,31.4
"2018-08-03 04:00:00",352165,0.064,38.93,19.95,67.72,0,0,864.3737,0,3.654,3.035,198,21.98,21.9,0.2009143,0,33.69,42.6,28.92,31.4
"2018-08-03 04:10:00",352166,0.005,38.39,19.64,69.93,0,0,864.46,0,3.26,3.044,200,21.99,21.9,0.07960757,0,33.69,42.6,28.92,31.4
"2018-08-03 04:20:00",352167,0,0,18.31,78.25,0,0,864.6221,0,3.41,3.048,199,21.92,21.92,0,0,33.64,42.6,28.9,31.4
"2018-08-03 04:30:00",352168,0.013,159,17.76,80.9,0,0,864.6917,0,3.561,3.047,200,21.9,21.96,0,0,33.69,42.6,28.92,31.4
"2018-08-03 04:40:00",352169,0.027,176.8,17.74,81.7,0,0,864.8602,0,3.115,3.052,200,21.9,21.96,0,0,33.69,42.6,28.92,31.4
"2018-08-03 04:50:00",352170,0.466,53.35,18.07,79.02,0,0,864.8791,0,3.664,3.041,201,21.81,21.9,0.6406513,0,33.73,42.6,28.93,31.4
"2018-08-03 05:00:00",352171,0.828,44.21,19.09,77.53,0.6605133,0,864.8791,0,3.36,3.041,200,21.81,21.86,1.482217,1.789,33.69,42.6,28.92,31.4
"2018-08-03 05:10:00",352172,0.864,53.28,19.04,79.57,3.082395,0,864.8791,0,3.364,3.043,199,21.81,21.85,1.137251,0.41,33.73,42.65,28.93,31.41
"2018-08-03 05:20:00",352173,0.327,352.4,18.92,80.9,7.363937,0,864.8854,0,3.237,3.044,197,21.77,21.82,1.482217,0.206,33.73,42.65,28.93,31.41
"2018-08-03 05:30:00",352174,0.389,38.15,18.69,82.1,14.10275,0,864.9086,0,3.251,3.045,199,21.72,21.81,2.111496,0.15,33.73,42.65,28.93,31.41
"2018-08-03 05:40:00",352175,0.182,64.96,18.47,79.13,25.52405,0,864.9592,0,4.306,3.033,194,21.72,21.81,3.49514,0.132,33.69,42.65,28.92,31.41
"2018-08-03 05:50:00",352176,0.318,89.1,19.43,70.93,35.08931,0,865.0834,0,2.844,3.046,199,21.73,21.82,5.515595,0.157,33.73,42.65,28.93,31.41
"2018-08-03 06:00:00",352177,0.311,95.9,19.04,75.75,49.39659,0,865.1277,0,2.998,3.047,194,21.75,21.84,7.198745,0.146,33.73,42.65,28.93,31.41
"2018-08-03 06:10:00",352178,0.447,135.4,19.17,74.35,68.4337,0,865.1255,0,2.772,3.046,198,21.71,21.85,10.90621,0.163,33.73,42.65,28.93,31.41
"2018-08-03 06:20:00",352179,0.489,174.8,19.26,77.37,81.55367,0,865.1318,0,3.106,3.043,195,21.65,21.85,15.83052,0.195,33.78,42.6,28.94,31.4
"2018-08-03 06:30:00",352180,0.344,167.2,19.48,78.29,95.83339,0,865.1424,0,3.06,3.043,200,21.64,21.82,14.12465,0.148,33.78,42.65,28.94,31.41
"2018-08-03 06:40:00",352181,0.144,280.2,19.68,76.3,108.049,0,865.2498,0,2.996,3.04,200,21.64,21.78,15.92909,0.151,33.73,42.65,28.93,31.41
"2018-08-03 06:50:00",352182,0.205,138.4,19.91,75.74,110.0108,0,865.3552,0,3.079,3.041,193,21.6,21.72,18.56752,0.181,33.78,42.6,28.94,31.4
"2018-08-03 07:00:00",352183,0.168,164.8,20.13,73.57,175.2523,0,865.3509,0,3.164,3.035,194,21.52,21.7,22.96868,0.139,33.78,42.6,28.94,31.4
"2018-08-03 07:10:00",352184,0.327,167,20.79,69.2,116.6868,0,865.3846,0,2.656,3.039,197,21.5,21.69,24.77312,0.222,33.78,42.65,28.94,31.41
"2018-08-03 07:20:00",352185,0.492,247.6,20.92,66.27,99.87119,0,865.3846,0,2.781,3.036,198,21.51,21.69,23.76096,0.238,33.73,42.65,28.93,31.41
"2018-08-03 07:30:00",352186,0.28,315.7,21.37,63.35,117.6614,0,865.3846,0,2.331,3.039,198,21.53,21.71,23.215,0.199,33.73,42.65,28.93,31.41
"2018-08-03 07:40:00",352187,0.287,309,21.68,61.56,105.4448,0,865.3846,0,2.007,3.041,194,21.54,21.72,25.66741,0.244,33.73,42.6,28.93,31.4
"2018-08-03 07:50:00",352188,0.302,22.11,21.82,63.4,133.5733,0,865.4246,0,1.883,3.042,207,21.54,21.72,28.14619,0.215,33.78,42.65,28.94,31.41
"2018-08-03 08:00:00",352189,0.486,8.96,21.67,68.32,437.3152,0,865.4562,0,2.212,3.04,210,21.53,21.71,36.43909,0.092,33.78,42.65,28.94,31.41
"2018-08-03 08:10:00",352190,0.301,23.55,22.1,64.82,540.6783,0,865.5804,0,1.108,3.047,230,21.5,21.69,54.68695,0.101,33.78,42.6,28.94,31.4
"2018-08-03 08:20:00",352191,0.32,24.65,22.47,65.6,574.7062,0,865.5742,0,1.224,3.043,217,21.49,21.68,70.13808,0.122,33.78,42.65,28.94,31.41
"2018-08-03 08:30:00",352192,0.499,2.298,22.64,65.27,605.804,0,865.3888,0,0.996,3.046,211,21.46,21.6,79.92841,0.132,33.69,42.65,28.92,31.41
"2018-08-03 08:40:00",352193,0.432,70.28,22.82,65.2,642.1556,0,865.3846,0,1.745,3.038,222,21.38,21.57,86.81522,0.135,33.78,42.65,28.94,31.41
"2018-08-03 08:50:00",352194,0.428,22.62,22.91,67.61,674.2971,0,865.3825,0,1.787,3.037,249,21.35,21.59,90.16892,0.134,33.78,42.65,28.94,31.41
"2018-08-03 09:00:00",352195,0.713,40.97,22.88,68.04,703.0816,0,865.3572,0,3.686,3.019,233,21.34,21.56,92.29199,0.131,33.78,42.6,28.94,31.4
"2018-08-03 09:10:00",352196,0.706,10.43,23.16,68.4,741.1888,0,865.3425,0,1.732,3.036,203,21.34,21.45,97.83549,0.132,33.78,42.65,28.94,31.41
"2018-08-03 09:20:00",352197,0.583,8.13,23.27,67.6,774.5592,0,865.334,0,2.047,3.033,201,21.33,21.44,104.4048,0.135,33.78,42.65,28.94,31.41
"2018-08-03 09:30:00",352198,0.638,22.86,23.47,68.52,805.7203,0,865.2604,0,2.717,3.023,201,21.33,21.45,109.6114,0.136,33.78,42.6,28.94,31.4
"2018-08-03 09:40:00",352199,0.332,292.1,24.1,66.23,833.0656,0,865.153,0,2.892,3.02,195,21.33,21.42,112.8642,0.135,33.78,42.65,28.94,31.41
"2018-08-03 09:50:00",352200,0.404,333,24.28,66.04,882.2398,0,865.1318,0,2.788,3.021,204,21.32,21.42,121.6482,0.138,33.78,42.65,28.94,31.41
"2018-08-03 10:00:00",352201,0.528,13.8,24.09,67.06,802.9965,0,865.1318,0,2.622,3.023,209,21.29,21.42,111.3146,0.135,33.73,42.6,28.93,31.4
"2018-08-03 10:10:00",352202,0.401,306.2,24.59,65.27,910.4062,0,865.1318,0,2.295,3.025,208,21.27,21.39,128.713,0.14,33.73,42.6,28.93,31.4
"2018-08-03 10:20:00",352203,0.319,288.6,24.37,65.06,858.8957,0,865.1318,0,1.789,3.027,202,21.26,21.34,121.7418,0.139,33.69,42.6,28.92,31.4
"2018-08-03 10:30:00",352204,0.563,276.4,24.33,64.62,648.7142,0,865.1318,0,2.609,3.024,204,21.29,21.31,88.45992,0.122,33.64,42.6,28.9,31.4
"2018-08-03 10:40:00",352205,0.689,298.8,24.25,64.9,825.9846,0,865.1318,0,3.419,3.016,220,21.39,21.34,123.2549,0.144,33.64,42.6,28.9,31.4
"2018-08-03 10:50:00",352206,0.441,271.4,24.5,63.43,955.5655,0,865.1318,0,2.548,3.021,195,21.43,21.34,145.6737,0.151,33.64,42.6,28.9,31.4
"2018-08-03 11:00:00",352207,0.445,282.7,24.39,62.06,635.2976,0,865.1298,0,3.241,3.019,194,21.45,21.35,91.27884,0.124,33.59,42.55,28.89,31.39
"2018-08-03 11:10:00",352208,0.548,283.8,24.84,61.59,1018.277,0,865.056,0,3.454,3.009,229,21.54,21.35,158.1534,0.155,33.59,42.55,28.89,31.39
"2018-08-03 11:20:00",352209,0.532,335.4,25.41,59.92,865.73,0,864.8791,0,1.958,3.024,222,21.6,21.35,132.1694,0.146,33.55,42.55,28.88,31.39
"2018-08-03 11:30:00",352210,0.734,26.44,25.17,59.43,902.9656,0,864.8707,0,3.372,3.01,228,21.7,21.35,140.8566,0.151,33.5,42.5,28.86,31.37
"2018-08-03 11:40:00",352211,0.782,91.5,25.63,58.29,800.8757,0,864.6601,0,2.246,3.021,207,21.78,21.34,122.3463,0.144,33.5,42.5,28.86,31.37
"2018-08-03 11:50:00",352212,0.637,17.01,25.79,56.02,1072.672,0,864.6285,0,2.772,3.012,210,21.83,21.31,173.6886,0.162,33.5,42.5,28.86,31.37
"2018-08-03 12:00:00",352213,0.546,11.66,26.34,54.05,898.9423,0,864.6263,0,2.695,3.011,241,21.94,21.3,142.4644,0.152,33.45,42.5,28.85,31.37
"2018-08-03 12:10:00",352214,0.699,266,26.03,53.78,971.4041,0,864.4937,0,2.926,3.009,225,22.01,21.31,154.023,0.155,33.45,42.45,28.85,31.36
"2018-08-03 12:20:00",352215,0.747,258.6,26.57,52.26,1024.189,0,864.3842,0,0.621,3.031,221,22.09,21.27,164.4617,0.159,33.41,42.4,28.84,31.34
"2018-08-03 12:30:00",352216,0.543,293.8,26.11,54.1,911.7596,0,864.3737,0,-1.191,3.049,241,22.19,21.24,142.4258,0.148,33.36,42.45,28.82,31.36
"2018-08-03 12:40:00",352217,0.471,173.7,26.24,54.44,724.3268,0,864.3737,0,1.344,3.025,232,22.26,21.18,111.9495,0.143,33.36,42.4,28.82,31.34
"2018-08-03 12:50:00",352218,0.347,324.7,26.19,54.79,807.2535,0,864.3737,0,0.248,3.033,206,22.39,21.18,127.4567,0.144,33.36,42.4,28.82,31.34
"2018-08-03 13:00:00",352219,0.657,297.5,26.57,51.62,992.8617,0,864.3399,0,1.739,3.019,228,22.49,21.19,158.7333,0.159,33.27,42.35,28.8,31.33
"2018-08-03 13:10:00",352220,0.712,273.9,26.28,51.24,983.2179,0,864.1229,0,2.258,3.016,244,22.6,21.19,157.7899,0.16,33.22,42.35,28.78,31.33
"2018-08-03 13:20:00",352221,0.496,245.7,26.56,50.93,977.3015,0,864.1208,0,2.369,3.013,212,22.68,21.2,157.076,0.161,33.22,42.3,28.78,31.32
"2018-08-03 13:30:00",352222,0.643,292.8,26.72,50.11,962.5363,0,864.1082,0,2.893,3.008,233,22.78,21.2,154.9174,0.161,33.18,42.3,28.77,31.32
"2018-08-03 13:40:00",352223,0.624,291,26.53,49.91,936.4162,0,864.1166,0,0.739,3.029,227,22.85,21.22,150.3088,0.161,33.13,42.25,28.75,31.3
"2018-08-03 13:50:00",352224,0.636,274.8,26.5,50.26,922.1317,0,864.1208,0,3.027,3.008,233,22.95,21.25,146.7455,0.159,33.13,42.3,28.75,31.32
"2018-08-03 14:00:00",352225,0.801,302.1,26.16,50.56,911.8417,0,864.1082,0,0.932,3.03,221,23.05,21.29,143.1236,0.157,33.09,42.25,28.74,31.3
"2018-08-03 14:10:00",352226,0.585,232.5,26.34,51.48,917.0459,0,864.024,0,-1.031,3.045,208,23.15,21.32,141.1055,0.154,33.04,42.19,28.73,31.29
"2018-08-03 14:20:00",352227,0.618,231.4,26.36,51.33,869.5013,0,864.0703,0,1.35,3.024,220,23.21,21.28,125.4991,0.144,32.99,42.19,28.71,31.29
"2018-08-03 14:30:00",352228,0.603,154.4,26.32,51.99,865.779,0,864.0282,0,3.352,3.004,249,23.32,21.28,116.344,0.134,32.95,42.14,28.7,31.28
"2018-08-03 14:40:00",352229,0.556,253.6,26.19,51.53,803.8502,0,863.946,0,0.531,3.034,240,23.39,21.28,93.91537,0.117,32.95,42.14,28.7,31.28
"2018-08-03 14:50:00",352230,0.533,217.6,26.16,53.38,784.4755,0,863.9187,0,-0.105,3.039,239,23.49,21.28,77.34509,0.098,32.9,42.09,28.69,31.26
"2018-08-03 15:00:00",352231,0.299,267.9,25.98,54.15,779.8852,0,863.8723,0,0.684,3.033,215,23.53,21.28,59.55745,0.076,32.86,42.04,28.67,31.25
"2018-08-03 15:10:00",352232,0.373,263.2,25.99,55.02,662.5418,0,863.8682,0,2.565,3.015,320,23.61,21.28,37.77631,0.066,32.86,42.09,28.67,31.26
"2018-08-03 15:20:00",352233,0.432,267.8,25.73,57.02,168.2284,0,863.8682,0,2.434,3.018,216,23.7,21.32,29.36246,0.175,32.81,42.04,28.66,31.25
"2018-08-03 15:30:00",352234,0.4,212.8,25.25,57.77,116.0279,0,864.0598,0,2.183,3.023,226,23.78,21.32,19.53494,0.168,32.81,42.04,28.66,31.25
"2018-08-03 15:40:00",352235,0.289,251.3,24.78,58.95,78.53734,0,864.1208,0,1.897,3.027,221,23.9,21.35,12.25442,0.156,32.72,41.99,28.63,31.24
"2018-08-03 15:50:00",352236,0.301,216.1,24.46,60.45,67.37126,0,864.1208,0,2.287,3.025,214,23.93,21.4,10.62871,0.158,32.67,41.99,28.62,31.24
"2018-08-03 16:00:00",352237,0.41,227.8,24.38,60.24,61.641,0,864.1271,0,2.064,3.028,298,24.03,21.41,9.525909,0.155,32.67,41.94,28.62,31.22
"2018-08-03 16:10:00",352238,0.388,263.3,24.07,60.57,59.21231,0,864.163,0,3.706,3.014,328,24.14,21.43,8.695895,0.147,32.67,41.94,28.62,31.22
"2018-08-03 16:20:00",352239,0.381,166.6,23.85,61.55,58.75662,0,864.3673,0,3.23,3.019,345,24.14,21.49,8.241061,0.14,32.67,41.94,28.62,31.22
"2018-08-03 16:30:00",352240,0.361,306.6,23.81,59.99,57.34991,0,864.3737,0,3.205,3.019,281,24.17,21.54,8.169149,0.142,32.67,41.89,28.62,31.21
"2018-08-03 16:40:00",352241,0.354,198,23.63,61.31,52.60886,0,864.2409,0,1.432,3.038,334,24.22,21.55,6.8955,0.131,32.63,41.94,28.61,31.22
"2018-08-03 16:50:00",352242,0.367,197,23.21,63.71,51.48458,0,864.2936,0,0.843,3.045,250,24.27,21.61,6.235918,0.121,32.67,41.94,28.62,31.22
"2018-08-03 17:00:00",352243,0.408,167.5,23.05,62.98,53.62738,0,864.3357,0,-0.788,3.062,223,24.28,21.59,6.516447,0.122,32.67,41.94,28.62,31.22
"2018-08-03 17:10:00",352244,0.297,160,22.68,64.2,54.50021,0,864.3737,0,-38.27,3.424,242,24.24,21.59,6.444422,0.118,32.67,41.89,28.62,31.21
"2018-08-03 17:20:00",352245,0.232,183,22.56,63.28,46.36174,0,864.3779,0,0.614,3.051,228,24.24,21.67,5.284426,0.114,32.67,41.89,28.62,31.21
"2018-08-03 17:30:00",352246,0.432,172.4,22.38,63.4,45.39457,0,864.3737,0,0.164,3.056,234,24.27,21.68,5.151747,0.113,32.67,41.89,28.62,31.21
"2018-08-03 17:40:00",352247,0.382,340.4,22.48,62.95,37.779,0,864.3737,0,1.124,3.047,220,24.22,21.66,4.348089,0.113,32.67,41.89,28.62,31.21
"2018-08-03 17:50:00",352248,0.47,285.5,22.19,63.16,32.77011,0,864.3737,0,-0.168,3.061,243,24.23,21.64,3.866653,0.118,32.67,41.89,28.62,31.21
"2018-08-03 18:00:00",352249,0.191,186.1,21.69,66.67,27.43096,0,864.3737,0,0.299,3.059,226,24.2,21.66,2.740775,0.1,32.67,41.89,28.62,31.21
"2018-08-03 18:10:00",352250,0.187,154.5,21.33,68.71,22.34344,0,864.382,0,0.647,3.057,219,24.1,21.76,2.194894,0.098,32.67,41.89,28.62,31.21
"2018-08-03 18:20:00",352251,0.099,145.9,21.19,67.7,15.62035,0,864.5485,0,0.302,3.061,256,24.09,21.8,1.558034,0.099,32.72,41.89,28.63,31.21
"2018-08-03 18:30:00",352252,0.008,161.5,20.9,69.04,9.502742,0,864.6263,0,0.387,3.062,215,24.08,21.78,0.7505856,0.08,32.67,41.89,28.62,31.21
"2018-08-03 18:40:00",352253,0,0,20.5,70.5,6.23556,0,864.6263,0,1.187,3.057,228,24.03,21.77,0.4207829,0.062,32.72,41.89,28.63,31.21
"2018-08-03 18:50:00",352254,0,0,20.15,71.44,2.701028,0,864.6263,0,1.201,3.058,218,24,21.76,0.2236593,0.11,32.67,41.89,28.62,31.21
"2018-08-03 19:00:00",352255,0.025,59.56,19.69,73.28,0.03145302,0,864.6263,0,1.45,3.059,221,23.96,21.81,0.01137251,0.04,32.72,41.89,28.63,31.21
"2018-08-03 19:10:00",352256,0.025,85.6,19.42,73.56,0,0,864.6263,0,1.817,3.055,289,23.94,21.9,0,0,32.72,41.89,28.63,31.21
"2018-08-03 19:20:00",352257,0.133,176,19.24,74.52,0,0,864.6263,0,1.41,3.061,236,23.86,21.9,0,0,32.72,41.84,28.63,31.2
"2018-08-03 19:30:00",352258,0.15,161.5,19.21,74.34,0,0,864.6263,0,1.419,3.06,216,23.82,21.89,0.3487529,0,32.76,41.89,28.65,31.21
"2018-08-03 19:40:00",352259,0.185,81.5,19.18,74.23,0,0,864.6516,0,1.77,3.055,232,23.77,21.9,0.4245717,0,32.76,41.89,28.65,31.21
"2018-08-03 19:50:00",352260,0.064,151.8,19.17,74.6,0,0,864.7843,0,3.012,3.048,338,23.76,21.95,0.3904549,0,32.76,41.89,28.65,31.21
"2018-08-03 20:00:00",352261,0.264,176.8,18.29,79.75,0,0,864.8791,0,2.777,3.053,309,23.73,22.04,0,0,32.76,41.89,28.65,31.21
"2018-08-03 20:10:00",352262,0.143,178,17.91,81.6,0,0,865.0034,0,2.149,3.06,243,23.67,22.01,0,0,32.76,41.89,28.65,31.21
"2018-08-03 20:20:00",352263,0.073,125.3,17.74,82.5,0,0,865.1572,0,2.266,3.06,238,23.64,21.99,0,0,32.76,41.89,28.65,31.21
"2018-08-03 20:30:00",352264,0.025,192.4,17.89,80.9,0,0,865.3004,0,2.134,3.059,208,23.56,21.99,0.3373844,0,32.76,41.89,28.65,31.21
"2018-08-03 20:40:00",352265,0.03,155.7,17.91,81.2,0,0,865.3783,0,2.425,3.058,203,23.53,21.99,0.3260119,0,32.81,41.89,28.66,31.21
"2018-08-03 20:50:00",352266,0.318,184,17.44,84,0,0,865.3825,0,2.488,3.059,202,23.45,21.99,0.06065338,0,32.81,41.89,28.66,31.21
"2018-08-03 21:00:00",352267,0.04,185.2,17.41,84.6,0,0,865.3846,0,2.868,3.056,217,23.44,22.03,0.2274502,0,32.81,41.89,28.66,31.21
"2018-08-03 21:10:00",352268,0.032,184,17.32,84.8,0,0,865.3846,0,2.835,3.057,216,23.39,22.07,0.231241,0,32.81,41.89,28.66,31.21
"2018-08-03 21:20:00",352269,0.306,187.9,17.08,86.8,0,0,865.3846,0,2.574,3.06,204,23.36,22.12,0.2274502,0,32.81,41.89,28.66,31.21
"2018-08-03 21:30:00",352270,0.055,188.6,17.1,87,0,0,865.3846,0,2.55,3.06,209,23.3,22.14,0.3146394,0,32.81,41.89,28.66,31.21
"2018-08-03 21:40:00",352271,0.14,183.9,17.03,87.4,0,0,865.3846,0,2.771,3.059,229,23.22,22.15,0.2994761,0,32.76,41.89,28.65,31.21
"2018-08-03 21:50:00",352272,0.3,188.3,16.79,89.2,0,0,865.3846,0,2.635,3.061,224,23.2,22.15,0.231241,0,32.81,41.89,28.66,31.21
"2018-08-03 22:00:00",352273,0.114,197.4,16.84,89.5,0,0,865.3762,0,2.533,3.062,240,23.12,22.14,0.3298028,0,32.86,41.89,28.67,31.21
"2018-08-03 22:10:00",352274,0.253,192.5,16.54,91.5,0,0,865.3762,0,2.951,3.06,289,23.15,22.13,0.1895418,0,32.86,41.89,28.67,31.21
"2018-08-03 22:20:00",352275,0.137,191.2,16.53,92.8,0,0,865.3846,0,3.133,3.058,330,23.06,22.13,0.3184303,0,32.86,41.89,28.67,31.21
"2018-08-03 22:30:00",352276,0.342,193.9,16.4,94.2,0,0,865.3846,0,-0.185,3.09,245,23.05,22.13,0.2426135,0,32.86,41.89,28.67,31.21
"2018-08-03 22:40:00",352277,0.198,193.4,16.54,93.8,0,0,865.4078,0,1.003,3.078,243,22.94,22.13,0.5307171,0,32.86,41.89,28.67,31.21
"2018-08-03 22:50:00",352278,0.06,189.2,16.43,94.3,0,0,865.53,0,-0.217,3.091,235,22.94,22.14,0.3032669,0,32.86,41.89,28.67,31.21
"2018-08-03 23:00:00",352279,0.23,183.8,16.41,96,0,0,865.3846,0,0.195,3.087,245,22.86,22.15,0.3904561,0,32.81,41.89,28.66,31.21
"2018-08-03 23:10:00",352280,0.286,186.3,16.31,97,0,0,865.4689,0,-1.736,3.106,202,22.83,22.14,0.3411753,0,32.81,41.89,28.66,31.21
"2018-08-03 23:20:00",352281,0.153,188.4,16.39,97.9,0,0,865.3909,0,-1.396,3.102,218,22.77,22.15,0.6103247,0,32.86,41.89,28.67,31.21
"2018-08-03 23:30:00",352282,0.178,188.4,16.27,98.5,0,0,865.3846,0,-0.121,3.091,238,22.74,22.16,0.4511095,0,32.86,41.89,28.67,31.21
"2018-08-03 23:40:00",352283,0.27,187.7,16.2,100,0,0,865.3846,0,-3.542,3.124,195,22.69,22.15,0.5079721,0,32.9,41.89,28.69,31.21
"2018-08-03 23:50:00",352284,0.296,187.3,16.19,100,0,0,865.3783,0,-0.691,3.097,230,22.7,22.16,0.4700637,0,32.9,41.89,28.69,31.21
